| time (UTC) | temp F | wind direction | speed MPH | gust MPH | rain 1hr in | rain 24hr in | rain mn in | humidity % | barometer mb |
| 20260503211505 | 54 | 277 | 9.0 | 15.0 | 0.00 | 0.36 | 0.05 | 44 | 1099.8 |
| 20260503210005 | 53 | 275 | 3.0 | 12.0 | 0.00 | 0.36 | 0.05 | 47 | 1099.8 |
| 20260503205505 | 53 | 286 | 5.0 | 13.0 | 0.00 | 0.36 | 0.05 | 48 | 1099.8 |
| 20260503205005 | 53 | 289 | 7.0 | 16.0 | 0.00 | 0.36 | 0.05 | 46 | 1099.8 |
| 20260503204504 | 54 | 327 | 5.0 | 13.0 | 0.00 | 0.36 | 0.05 | 48 | 1099.8 |
| 20260503204004 | 54 | 289 | 6.0 | 16.0 | 0.00 | 0.36 | 0.05 | 47 | 1099.8 |
| 20260503203505 | 53 | 313 | 8.0 | 14.0 | 0.00 | 0.36 | 0.05 | 48 | 1099.8 |
| 20260503203004 | 53 | 236 | 8.0 | 15.0 | 0.00 | 0.36 | 0.05 | 47 | 1099.8 |
| 20260503202504 | 53 | 295 | 6.0 | 12.0 | 0.00 | 0.36 | 0.05 | 49 | 1099.8 |
| 20260503202004 | 53 | 310 | 7.0 | 16.0 | 0.00 | 0.36 | 0.05 | 49 | 1099.8 |
| 20260503201504 | 53 | 272 | 5.0 | 15.0 | 0.00 | 0.36 | 0.05 | 49 | 1099.8 |
| 20260503201004 | 54 | 290 | 8.0 | 20.0 | 0.00 | 0.36 | 0.05 | 49 | 1099.8 |
| 20260503200505 | 54 | 340 | 7.0 | 13.0 | 0.00 | 0.36 | 0.05 | 51 | 1099.8 |
| 20260503200004 | 53 | 300 | 5.0 | 15.0 | 0.00 | 0.36 | 0.05 | 52 | 1099.8 |
| 20260503195504 | 53 | 260 | 7.0 | 15.0 | 0.00 | 0.36 | 0.05 | 51 | 1099.8 |
| 20260503195005 | 53 | 306 | 9.0 | 18.0 | 0.00 | 0.36 | 0.05 | 52 | 1099.8 |
| 20260503194504 | 52 | 296 | 6.0 | 15.0 | 0.00 | 0.36 | 0.05 | 53 | 1099.8 |
| 20260503194005 | 52 | 309 | 7.0 | 14.0 | 0.00 | 0.36 | 0.05 | 54 | 1099.8 |
| 20260503193505 | 52 | 319 | 7.0 | 15.0 | 0.00 | 0.36 | 0.05 | 54 | 1099.8 |
| 20260503193005 | 52 | 331 | 6.0 | 10.0 | 0.00 | 0.36 | 0.05 | 54 | 1099.8 |
| 20260503192004 | 51 | 319 | 9.0 | 20.0 | 0.00 | 0.36 | 0.05 | 54 | 1099.8 |
| 20260503191504 | 51 | 318 | 8.0 | 16.0 | 0.00 | 0.36 | 0.05 | 55 | 1099.8 |
| 20260503191004 | 52 | 289 | 7.0 | 12.0 | 0.00 | 0.36 | 0.05 | 54 | 1099.8 |
| 20260503190504 | 52 | 308 | 7.0 | 12.0 | 0.00 | 0.36 | 0.05 | 54 | 1099.8 |
| 20260503185504 | 51 | 333 | 6.0 | 12.0 | 0.00 | 0.36 | 0.05 | 56 | 1099.8 |
| 20260503184504 | 50 | 354 | 6.0 | 13.0 | 0.00 | 0.36 | 0.05 | 58 | 1099.8 |
| 20260503184004 | 50 | 346 | 7.0 | 13.0 | 0.00 | 0.36 | 0.05 | 58 | 1099.8 |
| 20260503183504 | 50 | 316 | 9.0 | 13.0 | 0.00 | 0.36 | 0.05 | 58 | 1099.8 |
| 20260503183005 | 50 | 320 | 8.0 | 16.0 | 0.00 | 0.36 | 0.05 | 58 | 1099.8 |
| 20260503182505 | 50 | 27 | 9.0 | 18.0 | 0.00 | 0.36 | 0.05 | 59 | 1099.8 |
| 20260503182006 | 50 | 314 | 8.0 | 20.0 | 0.00 | 0.36 | 0.05 | 60 | 1099.8 |
| 20260503181005 | 49 | 322 | 9.0 | 18.0 | 0.00 | 0.36 | 0.05 | 63 | 1099.8 |
| 20260503180504 | 49 | 326 | 6.0 | 15.0 | 0.00 | 0.36 | 0.05 | 65 | 1099.8 |
| 20260503180004 | 49 | 273 | 6.0 | 12.0 | 0.00 | 0.36 | 0.05 | 65 | 1099.8 |
| 20260503175504 | 49 | 324 | 11.0 | 20.0 | 0.00 | 0.36 | 0.05 | 65 | 1099.8 |
| 20260503175004 | 49 | 312 | 7.0 | 13.0 | 0.00 | 0.36 | 0.05 | 65 | 1099.8 |
| 20260503174504 | 49 | 323 | 9.0 | 15.0 | 0.00 | 0.36 | 0.05 | 65 | 1099.8 |
| 20260503174004 | 50 | 302 | 7.0 | 13.0 | 0.00 | 0.36 | 0.05 | 65 | 1099.8 |
| 20260503173505 | 50 | 350 | 8.0 | 16.0 | 0.00 | 0.36 | 0.05 | 65 | 1099.8 |
| 20260503173004 | 50 | 291 | 9.0 | 21.0 | 0.00 | 0.36 | 0.05 | 64 | 1099.8 |
| 20260503172004 | 51 | 321 | 12.0 | 21.0 | 0.00 | 0.36 | 0.05 | 65 | 1099.8 |
| 20260503171504 | 50 | 238 | 3.0 | 13.0 | 0.00 | 0.36 | 0.05 | 69 | 1099.8 |
| 20260503171004 | 49 | 307 | 7.0 | 13.0 | 0.00 | 0.36 | 0.05 | 69 | 1099.8 |
| 20260503170504 | 49 | 333 | 9.0 | 13.0 | 0.00 | 0.36 | 0.05 | 69 | 1099.8 |
| 20260503151005 | 46 | 346 | 6.0 | 13.0 | 0.00 | 0.36 | 0.05 | 79 | 1099.8 |
| 20260503130505 | 47 | 323 | 7.0 | 13.0 | 0.00 | 0.36 | 0.05 | 77 | 1099.8 |
| 20260503110504 | 44 | 336 | 1.0 | 2.0 | 0.00 | 0.36 | 0.05 | 86 | 1099.8 |
| 20260503081504 | 46 | 233 | 2.0 | 8.0 | 0.01 | 0.36 | 0.05 | 89 | 1099.8 |
| 20260503081005 | 46 | 233 | 1.0 | 5.0 | 0.01 | 0.36 | 0.05 | 89 | 1099.8 |
| 20260503072504 | 46 | 233 | 2.0 | 7.0 | 0.01 | 0.35 | 0.04 | 90 | 1099.8 |
| 20260503072006 | 47 | 233 | 2.0 | 6.0 | 0.01 | 0.35 | 0.04 | 91 | 1099.8 |
| 20260503071005 | 47 | 233 | 1.0 | 5.0 | 0.01 | 0.35 | 0.04 | 91 | 1099.8 |
| 20260503054504 | 48 | 219 | 0.0 | 0.0 | 0.01 | 0.33 | 0.02 | 91 | 1099.8 |
| 20260503054005 | 48 | 219 | 0.0 | 0.0 | 0.01 | 0.33 | 0.02 | 91 | 1099.8 |
| 20260503052005 | 48 | 219 | 0.0 | 0.0 | 0.01 | 0.32 | 0.01 | 91 | 1099.8 |
| 20260503051504 | 48 | 219 | 0.0 | 0.0 | 0.01 | 0.32 | 0.01 | 91 | 1099.8 |
| 20260503050005 | 48 | 219 | 1.0 | 3.0 | 0.01 | 0.32 | 0.01 | 91 | 1099.8 |
| 20260503044505 | 48 | 219 | 1.0 | 3.0 | 0.03 | 0.32 | 0.01 | 91 | 1099.8 |
| 20260503042505 | 48 | 209 | 0.0 | 2.0 | 0.04 | 0.31 | 0.00 | 91 | 1099.8 |
| 20260503042005 | 48 | 209 | 0.0 | 0.0 | 0.05 | 0.31 | 0.00 | 91 | 1099.8 |
| 20260503041505 | 48 | 209 | 0.0 | 3.0 | 0.05 | 0.31 | 0.00 | 91 | 1099.8 |
| 20260503041004 | 48 | 209 | 2.0 | 3.0 | 0.05 | 0.31 | 0.00 | 91 | 1099.8 |
| 20260503040504 | 48 | 209 | 0.0 | 2.0 | 0.05 | 0.31 | 0.00 | 91 | 1099.8 |
| 20260503040004 | 49 | 209 | 0.0 | 2.0 | 0.05 | 0.31 | 0.00 | 91 | 1099.8 |
| 20260503035505 | 49 | 209 | 0.0 | 0.0 | 0.05 | 0.30 | 0.30 | 91 | 1099.8 |
| 20260503035004 | 49 | 209 | 0.0 | 0.0 | 0.05 | 0.30 | 0.30 | 91 | 1099.8 |
| 20260503034504 | 49 | 209 | 0.0 | 0.0 | 0.04 | 0.29 | 0.29 | 91 | 1099.8 |
| 20260503034005 | 49 | 209 | 0.0 | 0.0 | 0.04 | 0.29 | 0.29 | 90 | 1099.8 |
| 20260503033004 | 48 | 209 | 0.0 | 1.0 | 0.04 | 0.28 | 0.28 | 91 | 1099.8 |
| 20260503032504 | 48 | 209 | 0.0 | 1.0 | 0.04 | 0.27 | 0.27 | 91 | 1099.8 |
| 20260503032004 | 48 | 209 | 1.0 | 3.0 | 0.03 | 0.26 | 0.26 | 90 | 1099.8 |
| 20260503031005 | 49 | 191 | 0.0 | 0.0 | 0.04 | 0.26 | 0.26 | 90 | 1099.8 |
| 20260503030504 | 49 | 191 | 0.0 | 0.0 | 0.05 | 0.26 | 0.26 | 90 | 1099.8 |
| 20260503025504 | 49 | 191 | 1.0 | 2.0 | 0.06 | 0.25 | 0.25 | 90 | 1099.8 |
| 20260503025004 | 49 | 191 | 1.0 | 2.0 | 0.07 | 0.25 | 0.25 | 90 | 1099.8 |
| 20260503024504 | 49 | 191 | 0.0 | 1.0 | 0.08 | 0.25 | 0.25 | 90 | 1099.8 |
| 20260503024004 | 49 | 191 | 0.0 | 1.0 | 0.09 | 0.25 | 0.25 | 90 | 1099.8 |
| 20260503023505 | 49 | 191 | 0.0 | 0.0 | 0.09 | 0.24 | 0.24 | 90 | 1099.8 |
| 20260503023004 | 49 | 191 | 0.0 | 0.0 | 0.09 | 0.24 | 0.24 | 90 | 1099.8 |
| 20260503022004 | 49 | 191 | 0.0 | 2.0 | 0.09 | 0.23 | 0.23 | 90 | 1099.8 |
| 20260503015504 | 49 | 191 | 0.0 | 0.0 | 0.07 | 0.19 | 0.19 | 90 | 1099.8 |
| 20260503015004 | 49 | 191 | 0.0 | 0.0 | 0.07 | 0.18 | 0.18 | 90 | 1099.8 |
| 20260503014504 | 49 | 191 | 0.0 | 0.0 | 0.07 | 0.17 | 0.17 | 90 | 1099.8 |
| 20260503014005 | 49 | 191 | 0.0 | 0.0 | 0.06 | 0.16 | 0.16 | 90 | 1099.8 |
| 20260503013504 | 49 | 191 | 0.0 | 0.0 | 0.06 | 0.15 | 0.15 | 90 | 1099.8 |
| 20260503013005 | 49 | 191 | 0.0 | 0.0 | 0.06 | 0.15 | 0.15 | 90 | 1099.8 |
| 20260503012504 | 49 | 191 | 0.0 | 0.0 | 0.06 | 0.14 | 0.14 | 90 | 1099.8 |
| 20260503011004 | 49 | 191 | 1.0 | 3.0 | 0.07 | 0.14 | 0.14 | 89 | 1099.8 |
| 20260503010504 | 49 | 191 | 0.0 | 2.0 | 0.07 | 0.14 | 0.14 | 89 | 1099.8 |
| 20260503010004 | 49 | 191 | 0.0 | 2.0 | 0.07 | 0.13 | 0.13 | 89 | 1099.8 |
| 20260503005504 | 49 | 191 | 0.0 | 1.0 | 0.06 | 0.12 | 0.12 | 89 | 1099.8 |
| 20260503005005 | 49 | 191 | 0.0 | 0.0 | 0.05 | 0.11 | 0.11 | 89 | 1099.8 |
| 20260503004504 | 49 | 191 | 0.0 | 0.0 | 0.04 | 0.10 | 0.10 | 89 | 1099.8 |
| 20260503004005 | 49 | 191 | 0.0 | 1.0 | 0.04 | 0.10 | 0.10 | 89 | 1099.8 |
| 20260503003004 | 49 | 213 | 0.0 | 0.0 | 0.04 | 0.09 | 0.09 | 89 | 1099.8 |
| 20260503002504 | 49 | 213 | 0.0 | 0.0 | 0.03 | 0.08 | 0.08 | 89 | 1099.8 |
| 20260503002004 | 49 | 213 | 0.0 | 0.0 | 0.03 | 0.08 | 0.08 | 88 | 1099.8 |
| 20260503001504 | 49 | 213 | 0.0 | 0.0 | 0.05 | 0.08 | 0.08 | 88 | 1099.8 |
| 20260503001005 | 49 | 213 | 0.0 | 0.0 | 0.05 | 0.07 | 0.07 | 88 | 1099.8 |
| 20260503000505 | 49 | 213 | 0.0 | 2.0 | 0.06 | 0.07 | 0.07 | 88 | 1099.8 |
| 20260503000005 | 49 | 213 | 2.0 | 5.0 | 0.05 | 0.06 | 0.06 | 88 | 1099.8 |
| 20260502235505 | 49 | 199 | 2.0 | 6.0 | 0.06 | 0.06 | 0.06 | 88 | 1099.8 |
| 20260502235004 | 49 | 193 | 3.0 | 6.0 | 0.06 | 0.06 | 0.06 | 88 | 1099.8 |
| 20260502234505 | 50 | 200 | 1.0 | 3.0 | 0.06 | 0.06 | 0.06 | 87 | 1099.8 |
| 20260502234004 | 50 | 199 | 0.0 | 3.0 | 0.06 | 0.06 | 0.06 | 87 | 1099.8 |
| 20260502233504 | 50 | 198 | 0.0 | 3.0 | 0.06 | 0.06 | 0.06 | 87 | 1099.8 |
| 20260502233004 | 50 | 198 | 1.0 | 5.0 | 0.05 | 0.05 | 0.05 | 86 | 1099.8 |
| 20260502232504 | 50 | 188 | 1.0 | 3.0 | 0.05 | 0.05 | 0.05 | 86 | 1099.8 |
| 20260502232004 | 50 | 188 | 1.0 | 5.0 | 0.05 | 0.05 | 0.05 | 86 | 1099.8 |
| 20260502231504 | 50 | 188 | 1.0 | 2.0 | 0.03 | 0.03 | 0.03 | 85 | 1099.8 |
| 20260502231005 | 50 | 188 | 1.0 | 6.0 | 0.02 | 0.02 | 0.02 | 84 | 1099.8 |
| 20260502230004 | 51 | 184 | 2.0 | 3.0 | 0.01 | 0.01 | 0.01 | 82 | 1099.8 |
| 20260502225504 | 51 | 183 | 0.0 | 3.0 | 0.00 | 0.00 | 0.00 | 81 | 1099.8 |
| 20260502224505 | 51 | 187 | 3.0 | 10.0 | 0.00 | 0.00 | 0.00 | 80 | 1099.8 |
| 20260502224005 | 51 | 214 | 2.0 | 7.0 | 0.00 | 0.00 | 0.00 | 80 | 1099.8 |
| 20260502223504 | 52 | 171 | 2.0 | 5.0 | 0.00 | 0.00 | 0.00 | 80 | 1099.8 |
| 20260502223004 | 52 | 214 | 1.0 | 5.0 | 0.00 | 0.00 | 0.00 | 79 | 1099.8 |
| 20260502222505 | 52 | 201 | 3.0 | 7.0 | 0.00 | 0.00 | 0.00 | 79 | 1099.8 |
| 20260502221505 | 52 | 184 | 3.0 | 9.0 | 0.00 | 0.00 | 0.00 | 79 | 1099.8 |
| 20260502221005 | 52 | 200 | 3.0 | 9.0 | 0.00 | 0.00 | 0.00 | 79 | 1099.8 |
| 20260502215506 | 52 | 193 | 6.0 | 12.0 | 0.00 | 0.00 | 0.00 | 78 | 1099.8 |
| 20260502214504 | 52 | 222 | 4.0 | 7.0 | 0.00 | 0.00 | 0.00 | 77 | 1099.8 |
| 20260502214005 | 52 | 212 | 2.0 | 7.0 | 0.00 | 0.00 | 0.00 | 78 | 1099.8 |
| 20260502213504 | 52 | 219 | 2.0 | 9.0 | 0.00 | 0.00 | 0.00 | 77 | 1099.8 |
| 20260502213004 | 52 | 220 | 2.0 | 9.0 | 0.00 | 0.00 | 0.00 | 77 | 1099.8 |
| 20260502212504 | 52 | 228 | 2.0 | 7.0 | 0.00 | 0.00 | 0.00 | 77 | 1099.8 |
| 20260502212004 | 52 | 228 | 3.0 | 7.0 | 0.00 | 0.00 | 0.00 | 77 | 1099.8 |